This is the latest recevied weather packets stored in our database for station/object DO1SN-13. If no packets are shown the sender has not sent any weather packets the latest 10 day(s).
| Time | Temp. | Humidity | Pressure | Rain* | Wind** | Luminosity | Snow |
|---|---|---|---|---|---|---|---|
| 1787713356 | 17.78° C | - | 1018.9 hPa | 0 mm | - | - | - |
| 1787712992 | 17.78° C | - | 1018.9 hPa | 0 mm | - | - | - |
| 1787712628 | 18.33° C | - | 1018.8 hPa | 0 mm | - | - | - |
| 1787712263 | 17.22° C | - | 1018.9 hPa | 0 mm | - | - | - |
| 1787711899 | 17.78° C | - | 1018.8 hPa | 0 mm | - | - | - |
| 1787711535 | 18.33° C | - | 1018.8 hPa | 0 mm | - | - | - |
| 1787711171 | 16.67° C | - | 1018.9 hPa | 0 mm | - | - | - |
| 1787710807 | 17.22° C | - | 1018.7 hPa | 0 mm | - | - | - |
| 1787710443 | 17.78° C | - | 1018.7 hPa | 0 mm | - | - | - |
| 1787710078 | 17.78° C | - | 1018.8 hPa | 0 mm | - | - | - |
| 1787709714 | 18.89° C | - | 1018.7 hPa | 0 mm | - | - | - |
| 1787709350 | 18.89° C | - | 1018.7 hPa | 0 mm | - | - | - |
| 1787708986 | 18.33° C | - | 1018.6 hPa | 0 mm | - | - | - |
| 1787708622 | 18.33° C | - | 1018.6 hPa | 0 mm | - | - | - |
| 1787708258 | 16.67° C | - | 1018.6 hPa | 0 mm | - | - | - |
| 1787707893 | 17.22° C | - | 1018.6 hPa | 0 mm | - | - | - |
| 1787707529 | 17.78° C | - | 1018.6 hPa | 0 mm | - | - | - |
| 1787707165 | 18.33° C | - | 1018.4 hPa | 0 mm | - | - | - |
| 1787706801 | 18.33° C | - | 1018.4 hPa | 0 mm | - | - | - |
| 1787706437 | 17.78° C | - | 1018.4 hPa | 0 mm | - | - | - |
| 1787706073 | 18.33° C | - | 1018.4 hPa | 0 mm | - | - | - |
| 1787705709 | 18.33° C | - | 1018.3 hPa | 0 mm | - | - | - |
| 1787705345 | 19.44° C | - | 1018.3 hPa | 0 mm | - | - | - |
| 1787704981 | 17.78° C | - | 1018.3 hPa | 0 mm | - | - | - |
| 1787704616 | 17.78° C | - | 1018.3 hPa | 0 mm | - | - | - |
* Rain latest hour (hover to see other rain measurements)
** Current wind speed in m/s (hover to see current wind gust speed)